Weather History for KHCO - November, 2013

Change the Weather History Date:

Saturday, November 16, 2013

  Actual Average Record
Temperature  
Mean Temperature 34 °F -  
Max Temperature 41 °F 33 °F 62 °F (2001)
Min Temperature 26 °F 18 °F -16 °F (1933)
Degree Days  
Heating Degree Days 32    
Moisture  
Dew Point 32 °F    
Average Humidity 89    
Maximum Humidity 100    
Minimum Humidity 70    
Precipitation  
Precipitation 0.13 in - - ()
Sea Level Pressure  
Sea Level Pressure 29.33 in    
Wind  
Wind Speed 6 mph (SSE)    
Max Wind Speed 10 mph    
Max Gust Speed -    
Visibility 8 miles    
Events Rain    
Averages and records for this station are not official NWS values.
T = Trace of Precipitation, MM = Missing Value Source: NWS Daily Summary

Daily Weather History Graph

Daily Weather History Graph

Search for Another Location

Airport or City:

Trip Planner

Search our weather history database for the weather conditions in past years. The results will help you decide how hot, cold, wet, or windy it might be!

Date:

Astronomy

Nov. 16, 2013 Rise Set
Actual Time 7:38 AM CST 4:46 PM CST
Civil Twilight 7:03 AM CST 5:20 PM CST
Nautical Twilight 6:25 AM CST 5:59 PM CST
Astronomical Twilight 5:48 AM CST 6:36 PM CST
Moon 4:25 PM CST (11/16) 6:31 AM CST (11/16)
Length of Visible Light 10h 17m
Length of Day
9h 07m
Waxing Gibbous, 99% of the Moon is Illuminated
Nov 16
Waxing Gibbous
Nov 17
Full
Nov 25
Last Quarter
Dec 2
New
Dec 9
First Quarter

Hourly Weather History & Observations

Time (CST) Temp. Windchill Dew Point Humidity Pressure Visibility Wind Dir Wind Speed Gust Speed Precip Events Conditions
12:13 AM 37.4 °F 30.3 °F 33.8 °F 87% 29.34 in 10.0 mi South 10.4 mph - N/A   Unknown
12:33 AM 37.4 °F 30.3 °F 33.8 °F 87% 29.33 in 10.0 mi South 10.4 mph - N/A   Unknown
12:53 AM 35.6 °F 29.9 °F 33.8 °F 93% 29.33 in 10.0 mi South 6.9 mph - N/A   Unknown
1:13 AM 33.8 °F 27.0 °F 32.0 °F 93% 29.32 in 10.0 mi South 8.1 mph - N/A   Unknown
1:33 AM 35.6 °F 29.9 °F 32.0 °F 87% 29.31 in 10.0 mi South 6.9 mph - N/A   Unknown
1:53 AM 33.8 °F 27.0 °F 32.0 °F 93% 29.31 in 10.0 mi South 8.1 mph - N/A   Unknown
2:13 AM 33.8 °F 27.0 °F 30.2 °F 87% 29.31 in 10.0 mi South 8.1 mph - N/A   Unknown
2:33 AM 33.8 °F 28.6 °F 30.2 °F 87% 29.31 in 10.0 mi South 5.8 mph - N/A   Unknown
2:53 AM 32.0 °F 24.2 °F 30.2 °F 93% 29.31 in 10.0 mi South 9.2 mph - N/A   Unknown
3:13 AM 33.8 °F 26.4 °F 30.2 °F 87% 29.31 in 10.0 mi South 9.2 mph - N/A   Unknown
3:33 AM 33.8 °F 27.0 °F 30.2 °F 87% 29.31 in 10.0 mi South 8.1 mph - N/A   Unknown
3:53 AM 32.0 °F 24.2 °F 30.2 °F 93% 29.31 in 7.0 mi South 9.2 mph - N/A   Unknown
4:14 AM 30.2 °F 25.4 °F 28.4 °F 93% 29.32 in 7.0 mi SSW 4.6 mph - N/A   Unknown
4:33 AM 30.2 °F 24.3 °F 28.4 °F 93% 29.32 in 7.0 mi South 5.8 mph - N/A   Unknown
4:53 AM 30.2 °F 22.6 °F 28.4 °F 93% 29.32 in 7.0 mi SSE 8.1 mph - N/A   Unknown
5:13 AM 30.2 °F 21.9 °F 28.4 °F 93% 29.32 in 7.0 mi SSE 9.2 mph - N/A   Unknown
5:34 AM 28.4 °F 20.4 °F 26.6 °F 93% 29.31 in 7.0 mi SSE 8.1 mph - N/A   Unknown
5:53 AM 28.4 °F 20.4 °F 26.6 °F 93% 29.31 in 5.0 mi SSE 8.1 mph - N/A   Mist
6:13 AM 26.6 °F 19.1 °F 24.8 °F 93% 29.31 in 5.0 mi SSE 6.9 mph - N/A   Mist
6:33 AM 26.6 °F 22.6 °F 24.8 °F 93% 29.31 in 7.0 mi SE 3.5 mph - N/A   Unknown
6:53 AM 26.6 °F 18.2 °F 26.6 °F 100% 29.32 in 5.0 mi SSE 8.1 mph - N/A   Mist
7:13 AM 26.6 °F 17.5 °F 24.8 °F 93% 29.32 in 7.0 mi SE 9.2 mph - N/A   Unknown
7:33 AM 28.4 °F 19.7 °F 26.6 °F 93% 29.33 in 5.0 mi SSE 9.2 mph - N/A   Mist
7:53 AM 28.4 °F 19.1 °F 26.6 °F 93% 29.33 in 5.0 mi SSE 10.4 mph - N/A   Mist
8:13 AM 28.4 °F 20.4 °F 26.6 °F 93% 29.33 in 5.0 mi SSE 8.1 mph - N/A   Mist
8:33 AM 28.4 °F 20.4 °F 26.6 °F 93% 29.34 in 5.0 mi South 8.1 mph - N/A   Mist
8:53 AM 30.2 °F 25.4 °F 28.4 °F 93% 29.34 in 5.0 mi SSE 4.6 mph - N/A   Mist
9:13 AM 30.2 °F 26.7 °F 30.2 °F 100% 29.34 in 5.0 mi SSW 3.5 mph - N/A   Mist
9:33 AM 32.0 °F - 30.2 °F 93% 29.33 in 7.0 mi Calm Calm - N/A   Unknown
9:53 AM 33.8 °F 25.8 °F 30.2 °F 87% 29.34 in 7.0 mi SSE 10.4 mph - N/A   Unknown
10:13 AM 33.8 °F 27.0 °F 32.0 °F 93% 29.35 in 10.0 mi South 8.1 mph - N/A   Unknown
10:33 AM 35.6 °F - 32.0 °F 87% 29.34 in 10.0 mi Calm Calm - N/A   Unknown
10:53 AM 35.6 °F - 32.0 °F 87% 29.34 in 10.0 mi Calm Calm - N/A   Unknown
11:13 AM 35.6 °F - 30.2 °F 81% 29.34 in 10.0 mi Calm Calm - N/A   Unknown
11:33 AM 35.6 °F - 32.0 °F 87% 29.34 in 10.0 mi Calm Calm - N/A   Unknown
11:53 AM 35.6 °F - 32.0 °F 87% 29.33 in 10.0 mi Calm Calm - N/A   Unknown
12:13 PM 37.4 °F - 33.8 °F 87% 29.33 in 10.0 mi Calm Calm - N/A   Unknown
12:33 PM 37.4 °F - 33.8 °F 87% 29.33 in 10.0 mi Calm Calm - N/A   Unknown
12:53 PM 37.4 °F - 33.8 °F 87% 29.34 in 10.0 mi Calm Calm - N/A   Unknown
1:13 PM 39.2 °F - 33.8 °F 81% 29.33 in 10.0 mi Calm Calm - N/A   Unknown
1:33 PM 39.2 °F - 33.8 °F 81% 29.32 in 10.0 mi Calm Calm - N/A   Unknown
1:53 PM 39.2 °F - 33.8 °F 81% 29.32 in 10.0 mi Calm Calm - N/A   Unknown
2:13 PM 41.0 °F - 33.8 °F 76% 29.32 in 10.0 mi Calm Calm - N/A   Unknown
2:33 PM 41.0 °F - 33.8 °F 76% 29.32 in 10.0 mi Calm Calm - N/A   Unknown
2:53 PM 41.0 °F - 32.0 °F 70% 29.31 in 10.0 mi Calm Calm - N/A   Unknown
3:13 PM 41.0 °F - 32.0 °F 70% 29.31 in 10.0 mi Calm Calm - N/A   Unknown
3:33 PM 41.0 °F - 33.8 °F 76% 29.32 in 10.0 mi Calm Calm - N/A   Unknown
3:53 PM 39.2 °F - 33.8 °F 81% 29.33 in 10.0 mi Calm Calm - N/A   Unknown
4:13 PM 39.2 °F - 33.8 °F 81% 29.33 in 10.0 mi Calm Calm - N/A   Unknown
4:33 PM 39.2 °F - 33.8 °F 81% 29.33 in 10.0 mi Calm Calm - N/A   Unknown
4:53 PM 39.2 °F - 33.8 °F 81% 29.33 in 10.0 mi Calm Calm - N/A   Unknown
5:13 PM 37.4 °F - 33.8 °F 87% 29.34 in 10.0 mi Calm Calm - N/A   Light Drizzle
5:33 PM 39.2 °F - 33.8 °F 81% 29.34 in 10.0 mi Calm Calm - N/A Rain Light Rain
5:53 PM 37.4 °F 34.9 °F 33.8 °F 87% 29.34 in 10.0 mi East 3.5 mph - N/A Rain Light Rain
6:14 PM 37.4 °F 33.8 °F 35.6 °F 93% 29.34 in 10.0 mi North 4.6 mph - N/A Rain Light Rain
6:33 PM 37.4 °F 32.8 °F 35.6 °F 93% 29.33 in 7.0 mi North 5.8 mph - N/A Rain Light Rain
6:53 PM 37.4 °F 33.8 °F 33.8 °F 87% 29.34 in 10.0 mi NNW 4.6 mph - 0.01 in Rain Rain
7:14 PM 37.4 °F 33.8 °F 33.8 °F 87% 29.34 in 10.0 mi NW 4.6 mph - N/A   Light Drizzle
7:33 PM 37.4 °F 32.1 °F 33.8 °F 87% 29.34 in 7.0 mi NW 6.9 mph - 0.02 in Rain Light Rain
7:53 PM 37.4 °F 33.8 °F 35.6 °F 93% 29.33 in 5.0 mi NNW 4.6 mph - 0.03 in Rain Light Rain
8:14 PM 35.6 °F 29.9 °F 33.8 °F 93% 29.33 in 5.0 mi NNW 6.9 mph - 0.02 in Rain Light Rain
8:33 PM 35.6 °F 30.7 °F 33.8 °F 93% 29.34 in 7.0 mi NW 5.8 mph - 0.02 in Rain Light Rain
8:53 PM 35.6 °F - 33.8 °F 93% 29.35 in 5.0 mi Calm Calm - 0.02 in Rain Rain
9:14 PM 35.6 °F - 33.8 °F 93% 29.35 in 5.0 mi Calm Calm - 0.01 in Rain Light Rain
9:33 PM 35.6 °F 32.8 °F 33.8 °F 93% 29.35 in 5.0 mi North 3.5 mph - 0.01 in Rain Rain
9:53 PM 35.6 °F 31.7 °F 33.8 °F 93% 29.35 in 5.0 mi North 4.6 mph - 0.02 in Rain Rain
10:13 PM 35.6 °F 32.8 °F 35.6 °F 100% 29.35 in 5.0 mi North 3.5 mph - N/A Rain Light Rain
10:33 PM 35.6 °F 32.8 °F 35.6 °F 100% 29.35 in 5.0 mi North 3.5 mph - 0.01 in Rain Light Rain
10:53 PM 35.6 °F 31.7 °F 35.6 °F 100% 29.35 in 4.0 mi NNW 4.6 mph - 0.02 in Rain Light Rain
11:13 PM 35.6 °F 32.8 °F 35.6 °F 100% 29.36 in 4.0 mi NNW 3.5 mph - 0.01 in Rain Light Rain
11:33 PM 35.6 °F 32.8 °F 35.6 °F 100% 29.36 in 3.0 mi NNW 3.5 mph - 0.02 in Rain Light Rain
11:53 PM 35.6 °F 31.7 °F 35.6 °F 100% 29.36 in 3.0 mi NNW 4.6 mph - 0.03 in Rain Light Rain